C/2016 R3 ( Borisov )

Japanese version
Home page
Updated on November 26, 2016

---------------------------------------------------------------------

* Profile

Discovery Date September 11, 2016
Magnitude 16.0 mag
Discoverer Gennady Borisov (MARGO observatory near Nauchnij, Crimea)

* Pictures

* Orbital Elements

Epoch 2016 Oct. 19.0 TT = JDT 2457680.5
T 2016 Oct. 10.98508 TT                                 MPCW
q   0.4472754            (2000.0)            P               Q
z  +0.0050547      Peri.  118.04690     -0.61245398     +0.10404438
 +/-0.0014308      Node    78.68829     -0.60809294     -0.69540399
e   0.9977392      Incl.   53.04931     +0.50509712     -0.71104715
From 51 observations 2016 Sept. 11-24, mean residual 0".9.

* Finding Charts

* Magnitudes Graph

        m1 = 13.5 + 5 log d + 10.0 log r

---------------------------------------------------------------------

The orbital elements are published on M.P.E.C. 2016-U66.
The charts are made with StellaNavigator Ver.10 (AstroArts).
The magnitudes graphs are made with Comet for Windows.

---------------------------------------------------------------------

Copyright(C) Seiichi Yoshida (comet@aerith.net). All rights reserved.